GW6280 Weather Reports


Display with metric or nautical units.
time (UTC)temp
F
wind
direction
speed
MPH
gust
MPH
rain 1hr
in
rain 24hr
in
rain mn
in
humidity
%
barometer
mb
20260507064022 52 0.0 0.0 0.00 0.00 0.00 93 1023.0
20260507063026 53 0.0 0.0 0.00 0.00 0.00 92 1023.0
20260507062030 53 0.0 0.0 0.00 0.00 0.00 92 1023.1
20260507061015 53 0.0 0.0 0.00 0.00 0.00 91 1023.1
20260507060018 53 0.0 0.0 0.00 0.00 0.00 91 1023.1
20260507055022 54 0.0 0.0 0.00 0.00 0.00 91 1023.1
20260507054025 54 0.0 0.0 0.00 0.00 0.00 90 1023.1
20260507053023 54 0.0 0.0 0.00 0.00 0.00 90 1023.2
20260507052021 54 0.0 0.0 0.00 0.00 0.00 90 1023.1
20260507051018 54 0.0 0.0 0.00 0.00 0.00 90 1023.1
20260507050036 54 0.0 0.0 0.00 0.00 0.00 89 1023.0
20260507045019 55 0.0 0.0 0.00 0.00 0.00 88 1023.1
20260507044042 55 0.0 0.0 0.00 0.00 0.00 88 1023.0
20260507043026 55 0.0 0.0 0.00 0.00 0.00 88 1023.0
20260507042029 55 0.0 0.0 0.00 0.00 0.00 88 1023.0
20260507041015 56 0.0 2.0 0.00 0.00 0.00 88 1022.9
20260507040018 56 0.0 0.0 0.00 0.00 0.00 88 1022.9
20260507035022 56 0.0 0.0 0.00 0.00 0.00 87 1022.8
20260507034025 56 0.0 0.0 0.00 0.00 0.00 87 1022.8
20260507033030 57 0.0 0.0 0.00 0.00 0.00 87 1022.7
20260507032032 57 0.0 0.0 0.00 0.00 0.00 86 1022.7
20260507031038 57 0.0 0.0 0.00 0.00 0.00 86 1022.7
20260507030021 57 0.0 0.0 0.00 0.00 0.00 85 1022.6
20260507025045 57 0.0 0.0 0.00 0.00 0.00 85 1022.6
20260507024028 57 0.0 0.0 0.00 0.00 0.00 85 1022.6
20260507023032 58 0.0 0.0 0.00 0.00 0.00 84 1022.5
20260507022017 58 0.0 0.0 0.00 0.00 0.00 83 1022.5
20260507021021 58 0.0 0.0 0.00 0.00 0.00 83 1022.5
20260507020024 58 0.0 0.0 0.00 0.00 0.00 83 1022.4
20260507015027 58 45 0.0 2.0 0.00 0.00 0.00 82 1022.3
20260507014025 58 131 0.0 2.0 0.00 0.00 0.00 80 1022.3
20260507013016 59 180 0.0 2.0 0.00 0.00 0.00 80 1022.4
20260507012019 59 0.0 0.0 0.00 0.00 0.00 80 1022.5
20260507011017 59 135 1.0 2.0 0.00 0.00 0.00 80 1022.5
20260507010027 58 23 0.0 2.0 0.00 0.00 0.00 81 1022.6
20260507005030 59 110 3.0 5.0 0.00 0.00 0.00 80 1022.6
20260507004035 59 108 1.0 3.0 0.00 0.00 0.00 79 1022.5
20260507003019 59 104 0.0 3.0 0.00 0.00 0.00 80 1022.5
20260507002022 59 114 1.0 4.0 0.00 0.00 0.00 79 1022.5
20260507001026 58 103 2.0 5.0 0.00 0.00 0.00 81 1022.5
20260507000030 58 99 2.0 3.0 0.00 0.00 0.00 81 1022.4
20260506235032 58 98 3.0 5.0 0.00 0.00 0.00 81 1022.4
20260506234018 58 108 3.0 5.0 0.00 0.00 0.00 81 1022.5
20260506233043 58 90 3.0 4.0 0.00 0.00 0.00 81 1022.5
20260506232025 58 103 2.0 5.0 0.00 0.00 0.00 80 1022.6
20260506231028 58 104 3.0 4.0 0.00 0.00 0.00 80 1022.6
20260506230031 58 92 3.0 5.0 0.00 0.00 0.00 80 1022.6
20260506225017 58 107 3.0 5.0 0.00 0.00 0.00 79 1022.6
20260506224041 58 118 2.0 4.0 0.00 0.00 0.00 78 1022.6
20260506223024 58 106 3.0 8.0 0.00 0.00 0.00 79 1022.6
20260506222027 58 99 5.0 8.0 0.00 0.00 0.00 78 1022.7
20260506221051 58 86 4.0 7.0 0.00 0.00 0.00 78 1022.7
20260506220016 59 114 3.0 4.0 0.00 0.00 0.00 76 1022.8
20260506215040 59 133 3.0 6.0 0.00 0.00 0.00 75 1022.7
20260506214023 58 71 3.0 5.0 0.00 0.00 0.00 77 1022.7
20260506213020 58 97 4.0 5.0 0.00 0.00 0.00 78 1022.8
20260506212019 58 92 4.0 5.0 0.00 0.00 0.00 78 1022.9
20260506211015 58 122 3.0 6.0 0.00 0.00 0.00 76 1022.9
20260506210019 58 118 3.0 5.0 0.00 0.00 0.00 77 1022.8
20260506205037 58 96 5.0 7.0 0.00 0.00 0.00 77 1022.8
20260506204020 58 105 4.0 6.0 0.00 0.00 0.00 76 1022.7
20260506203024 58 104 5.0 7.0 0.00 0.00 0.00 76 1022.7
20260506202027 58 70 3.0 6.0 0.00 0.00 0.00 77 1022.7
20260506201031 57 108 4.0 5.0 0.00 0.00 0.00 78 1022.6
20260506200016 58 106 5.0 7.0 0.00 0.00 0.00 78 1022.7
20260506195019 58 93 3.0 6.0 0.00 0.00 0.00 78 1022.6
20260506194043 57 122 4.0 7.0 0.00 0.00 0.00 79 1022.6
20260506193027 57 100 4.0 6.0 0.00 0.00 0.00 79 1022.6
20260506192030 57 74 4.0 5.0 0.00 0.00 0.00 79 1022.5
20260506191016 56 114 4.0 6.0 0.00 0.00 0.00 81 1022.5
20260506190019 56 120 5.0 10.0 0.00 0.00 0.00 81 1022.4
20260506185023 56 82 4.0 7.0 0.00 0.00 0.00 83 1022.4
20260506184027 56 114 3.0 6.0 0.00 0.00 0.00 82 1022.4
20260506183029 56 137 3.0 6.0 0.00 0.00 0.00 83 1022.4
20260506182015 56 71 4.0 7.0 0.00 0.00 0.00 84 1022.3
20260506181018 56 104 4.0 6.0 0.00 0.00 0.00 84 1022.3
20260506180042 56 106 4.0 5.0 0.00 0.00 0.00 84 1022.3
20260506175025 55 108 5.0 7.0 0.00 0.00 0.00 85 1022.1
20260506174022 55 129 3.0 5.0 0.00 0.00 0.00 86 1022.1
20260506173020 55 107 5.0 8.0 0.00 0.00 0.00 86 1021.9
20260506172019 56 109 4.0 5.0 0.00 0.00 0.00 86 1022.0
20260506171036 56 146 3.0 5.0 0.00 0.00 0.00 85 1022.2
20260506170025 56 132 3.0 5.0 0.00 0.00 0.00 86 1022.1
20260506165028 56 113 3.0 6.0 0.00 0.00 0.00 86 1022.1
20260506164019 56 106 3.0 5.0 0.00 0.00 0.00 86 1022.1
20260506163042 56 97 4.0 5.0 0.00 0.00 0.00 86 1022.1
20260506162026 56 5 2.0 5.0 0.00 0.00 0.00 86 1022.0
20260506161029 55 124 3.0 8.0 0.00 0.00 0.00 87 1021.7
20260506160113 55 98 4.0 8.0 0.00 0.00 0.00 88 1021.4
20260506155018 55 83 4.0 7.0 0.00 0.00 0.00 89 1021.4
20260506154022 55 67 2.0 5.0 0.00 0.00 0.00 89 1021.4
20260506153025 55 115 4.0 7.0 0.00 0.00 0.00 89 1021.5
20260506152042 55 105 4.0 6.0 0.00 0.00 0.00 89 1021.6
20260506151019 54 115 3.0 6.0 0.00 0.00 0.00 90 1021.7
20260506150017 54 101 4.0 5.0 0.00 0.00 0.00 91 1021.7
20260506145021 54 119 4.0 6.0 0.00 0.00 0.00 92 1021.3
20260506144024 53 106 4.0 8.0 0.00 0.00 0.00 92 1021.3
20260506143048 53 102 5.0 7.0 0.00 0.00 0.00 92 1021.4
20260506142031 53 113 3.0 6.0 0.00 0.00 0.00 92 1021.4
20260506141016 53 137 2.0 5.0 0.00 0.00 0.00 92 1021.4
20260506140040 53 161 1.0 3.0 0.00 0.00 0.00 92 1021.3
20260506135023 53 104 1.0 7.0 0.00 0.00 0.00 92 1021.3
20260506134026 53 92 1.0 3.0 0.00 0.00 0.00 92 1021.3
20260506133030 53 131 2.0 2.0 0.00 0.00 0.00 92 1021.3
20260506132015 52 126 3.0 5.0 0.00 0.00 0.00 93 1021.1
20260506131019 52 75 2.0 6.0 0.00 0.00 0.00 94 1021.1
20260506130043 52 153 2.0 5.0 0.00 0.00 0.00 94 1020.9
20260506125025 52 111 1.0 4.0 0.00 0.00 0.00 97 1020.6
20260506124110 52 85 1.0 4.0 0.00 0.00 0.00 98 1020.5
20260506123033 51 107 1.0 3.0 0.00 0.00 0.00 99 1020.8
20260506122018 51 0.0 0.0 0.00 0.00 0.00 99 1020.8
20260506121021 51 270 0.0 2.0 0.00 0.00 0.00 99 1020.6
20260506120025 50 0.0 0.0 0.00 0.00 0.00 99 1020.6
20260506115028 50 0.0 0.0 0.00 0.00 0.00 99 1020.5
20260506114026 50 140 1.0 3.0 0.00 0.00 0.00 99 1020.5
20260506113017 49 0.0 0.0 0.00 0.00 0.00 99 1020.4
20260506112021 49 23 0.0 2.0 0.00 0.00 0.00 99 1020.1
20260506111018 48 0.0 0.0 0.00 0.00 0.00 99 1020.1
20260506110016 48 45 0.0 2.0 0.00 0.00 0.00 99 1020.1
20260506105031 47 0.0 0.0 0.00 0.00 0.00 99 1020.0
20260506104016 47 0.0 0.0 0.00 0.00 0.00 99 1020.0
20260506103020 47 0.0 0.0 0.00 0.00 0.00 99 1020.1
20260506102023 46 0.0 0.0 0.00 0.00 0.00 98 1020.1
20260506101047 46 0.0 0.0 0.00 0.00 0.00 98 1020.0
20260506100030 46 0.0 0.0 0.00 0.00 0.00 98 1019.9
20260506095016 46 0.0 0.0 0.00 0.00 0.00 98 1019.8
20260506094020 46 0.0 0.0 0.00 0.00 0.00 98 1019.8
20260506093023 46 0.0 0.0 0.00 0.00 0.00 97 1019.7
20260506092026 46 0.0 0.0 0.00 0.00 0.00 97 1019.7
20260506091029 47 0.0 0.0 0.00 0.00 0.00 97 1019.6
20260506090015 47 0.0 0.0 0.00 0.00 0.00 97 1019.5
20260506085018 47 0.0 0.0 0.00 0.00 0.00 97 1019.4
20260506084042 47 0.0 0.0 0.00 0.00 0.00 97 1019.4
20260506083025 48 0.0 0.0 0.00 0.00 0.00 97 1019.3
20260506082029 48 0.0 0.0 0.00 0.00 0.00 97 1019.1
20260506081032 48 0.0 0.0 0.00 0.00 0.00 97 1019.0
20260506073022 49 0.0 0.0 0.00 0.00 0.00 97 1018.8
20260506072040 49 0.0 0.0 0.00 0.00 0.00 97 1018.7
20260506071017 49 0.0 0.0 0.00 0.00 0.00 96 1018.8